This is the latest recevied weather packets stored in our database for station/object SP8NFE-1. If no packets are shown the sender has not sent any weather packets the latest 10 day(s).
| Time | Temp. | Humidity | Pressure | Rain* | Wind** | Luminosity | Snow |
|---|---|---|---|---|---|---|---|
| 1777975511 | 24.44° C | 22% | 0 hPa | 0 mm | - | - | - |
| 1777975211 | 24.44° C | 22% | 0 hPa | 0 mm | - | - | - |
| 1777974911 | 23.89° C | 23% | 0 hPa | 0 mm | - | - | - |
| 1777974611 | 23.89° C | 21% | 0 hPa | 0 mm | - | - | - |
| 1777974311 | 23.89° C | 21% | 0 hPa | 0 mm | - | - | - |
| 1777974011 | 23.89° C | 22% | 0 hPa | 0 mm | - | - | - |
| 1777973711 | 23.33° C | 23% | 0 hPa | 0 mm | - | - | - |
| 1777973411 | 23.33° C | 22% | 0 hPa | 0 mm | - | - | - |
| 1777973111 | 22.78° C | 23% | 0 hPa | 0 mm | - | - | - |
| 1777972811 | 23.33° C | 21% | 0 hPa | 0 mm | - | - | - |
| 1777972511 | 22.78° C | 24% | 0 hPa | 0 mm | - | - | - |
| 1777972211 | 23.33° C | 23% | 0 hPa | 0 mm | - | - | - |
| 1777971911 | 23.33° C | 26% | 0 hPa | 0 mm | - | - | - |
| 1777971311 | 23.33° C | 25% | 0 hPa | 0 mm | - | - | - |
| 1777971011 | 23.33° C | 24% | 0 hPa | 0 mm | - | - | - |
| 1777970711 | 23.33° C | 24% | 0 hPa | 0 mm | - | - | - |
| 1777970411 | 23.33° C | 23% | 0 hPa | 0 mm | - | - | - |
| 1777970111 | 22.78° C | 23% | 0 hPa | 0 mm | - | - | - |
| 1777969811 | 22.78° C | 26% | 0 hPa | 0 mm | - | - | - |
| 1777969511 | 22.22° C | 25% | 0 hPa | 0 mm | - | - | - |
| 1777969211 | 22.78° C | 25% | 0 hPa | 0 mm | - | - | - |
| 1777968911 | 22.78° C | 27% | 0 hPa | 0 mm | - | - | - |
| 1777968611 | 22.22° C | 29% | 0 hPa | 0 mm | - | - | - |
| 1777968311 | 22.22° C | 29% | 0 hPa | 0 mm | - | - | - |
| 1777968011 | 21.67° C | 30% | 0 hPa | 0 mm | - | - | - |
* Rain latest hour (hover to see other rain measurements)
** Current wind speed in m/s (hover to see current wind gust speed)